WN4MDN Weather Reports


Display with metric or nautical units.
time (UTC)temp
F
wind
direction
speed
MPH
gust
MPH
rain 1hr
in
rain 24hr
in
rain mn
in
humidity
%
barometer
mb
20260508233050 81 96 4.0 9.0 0.00 0.00 0.00 77 1012.2
20260508232537 81 74 5.0 11.0 0.00 0.00 0.00 77 1012.4
20260508232034 81 59 4.0 11.0 0.00 0.00 0.00 76 1012.3
20260508231555 81 76 5.0 11.0 0.00 0.00 0.00 76 1012.2
20260508231034 82 65 6.0 11.0 0.00 0.00 0.00 76 1012.2
20260508230533 82 79 7.0 11.0 0.00 0.00 0.00 75 1012.2
20260508230046 82 46 6.0 10.0 0.00 0.00 0.00 75 1012.1
20260508225535 82 50 5.0 10.0 0.00 0.00 0.00 74 1012.1
20260508225035 83 74 7.0 10.0 0.00 0.00 0.00 73 1012.0
20260508224550 83 54 7.0 10.0 0.00 0.00 0.00 73 1012.0
20260508224033 83 53 6.0 13.0 0.00 0.00 0.00 72 1012.0
20260508223533 83 91 6.0 14.0 0.00 0.00 0.00 72 1012.0
20260508223043 83 65 9.0 14.0 0.00 0.00 0.00 71 1012.0
20260508222534 83 74 8.0 11.0 0.00 0.00 0.00 71 1012.0
20260508222035 83 101 7.0 12.0 0.00 0.00 0.00 71 1012.0
20260508221544 83 64 7.0 12.0 0.00 0.00 0.00 71 1011.9
20260508221035 83 111 6.0 12.0 0.00 0.00 0.00 71 1011.9
20260508220535 84 111 8.0 12.0 0.00 0.00 0.00 70 1011.9
20260508220050 84 78 7.0 14.0 0.00 0.00 0.00 71 1012.0
20260508215534 84 76 8.0 14.0 0.00 0.00 0.00 71 1012.1
20260508215034 84 57 7.0 12.0 0.00 0.00 0.00 71 1012.0
20260508214606 84 101 7.0 14.0 0.00 0.00 0.00 70 1012.0
20260508214033 84 94 7.0 14.0 0.00 0.00 0.00 72 1012.1
20260508213535 84 49 9.0 14.0 0.00 0.00 0.00 72 1011.9
20260508213101 84 66 8.0 14.0 0.00 0.00 0.00 71 1012.0
20260508212533 84 89 8.0 13.0 0.00 0.00 0.00 71 1012.0
20260508212037 85 88 8.0 12.0 0.00 0.00 0.00 70 1012.0
20260508211545 85 50 6.0 12.0 0.00 0.00 0.00 71 1012.1
20260508211034 84 46 8.0 14.0 0.00 0.00 0.00 71 1012.1
20260508210534 84 63 8.0 15.0 0.00 0.00 0.00 70 1012.1
20260508210048 85 38 9.0 15.0 0.00 0.00 0.00 70 1012.1
20260508205534 85 72 10.0 14.0 0.00 0.00 0.00 71 1012.1
20260508205034 85 78 7.0 13.0 0.00 0.00 0.00 70 1012.2
20260508204551 85 65 7.0 13.0 0.00 0.00 0.00 69 1012.2
20260508204034 85 143 7.0 13.0 0.00 0.00 0.00 70 1012.2
20260508203534 85 70 7.0 13.0 0.00 0.00 0.00 70 1012.3
20260508203050 85 35 8.0 14.0 0.00 0.00 0.00 70 1012.3
20260508202533 85 29 8.0 14.0 0.00 0.00 0.00 70 1012.4
20260508202035 85 69 7.0 15.0 0.00 0.00 0.00 69 1012.4
20260508201556 85 46 9.0 16.0 0.00 0.00 0.00 70 1012.4
20260508201034 85 59 11.0 16.0 0.00 0.00 0.00 70 1012.4
20260508200533 85 34 9.0 14.0 0.00 0.00 0.00 70 1012.5
20260508200100 86 90 7.0 16.0 0.00 0.00 0.00 69 1012.5
20260508195534 86 355 9.0 18.0 0.00 0.00 0.00 70 1012.6
20260508195035 86 72 9.0 18.0 0.00 0.00 0.00 69 1012.7
20260508194548 86 84 9.0 16.0 0.00 0.00 0.00 69 1012.8
20260508194032 86 74 10.0 16.0 0.00 0.00 0.00 68 1012.9
20260508193532 87 48 10.0 15.0 0.00 0.00 0.00 69 1012.9
20260508193053 88 69 8.0 14.0 0.00 0.00 0.00 65 1013.0
20260508192533 89 292 6.0 11.0 0.00 0.00 0.00 54 1013.2
20260508192035 89 277 3.0 8.0 0.00 0.00 0.00 58 1013.3
20260508191545 89 298 2.0 6.0 0.00 0.00 0.00 57 1013.3
20260508191036 88 306 2.0 5.0 0.00 0.00 0.00 57 1013.4
20260508190535 88 280 1.0 7.0 0.00 0.00 0.00 56 1013.6
20260508190051 88 34 2.0 7.0 0.00 0.00 0.00 57 1013.7
20260508185532 89 11 3.0 5.0 0.00 0.00 0.00 55 1013.7
20260508185034 88 74 0.0 8.0 0.00 0.00 0.00 59 1013.8
20260508184547 87 273 4.0 8.0 0.00 0.00 0.00 60 1013.8
20260508184032 87 275 4.0 13.0 0.00 0.00 0.00 60 1014.0
20260508183535 87 264 4.0 13.0 0.00 0.00 0.00 59 1014.1
20260508183046 87 290 5.0 8.0 0.00 0.00 0.00 59 1014.1
20260508182533 88 48 2.0 7.0 0.00 0.00 0.00 59 1014.2
20260508182032 88 355 2.0 6.0 0.00 0.00 0.00 58 1014.1
20260508181608 88 283 2.0 8.0 0.00 0.00 0.00 58 1014.2
20260508181036 87 161 2.0 11.0 0.00 0.00 0.00 59 1014.2
20260508180534 87 277 3.0 11.0 0.00 0.00 0.00 59 1014.3
20260508175532 87 319 1.0 9.0 0.00 0.00 0.00 59 1014.4
20260508175035 87 325 5.0 9.0 0.00 0.00 0.00 60 1014.3
20260508174542 87 346 2.0 12.0 0.00 0.00 0.00 59 1014.4
20260508174033 87 5 6.0 12.0 0.00 0.00 0.00 59 1014.6
20260508173533 87 250 1.0 9.0 0.00 0.00 0.00 62 1014.7
20260508173048 86 11 4.0 9.0 0.00 0.00 0.00 60 1014.8
20260508172534 86 5 5.0 9.0 0.00 0.00 0.00 61 1014.7
20260508172035 86 302 2.0 9.0 0.00 0.00 0.00 62 1014.7
20260508171546 86 296 5.0 9.0 0.00 0.00 0.00 62 1014.8
20260508171035 86 344 3.0 7.0 0.00 0.00 0.00 62 1014.9
20260508170533 86 231 1.0 6.0 0.00 0.00 0.00 64 1015.0
20260508170049 86 48 2.0 6.0 0.00 0.00 0.00 64 1015.1
20260508165535 86 62 1.0 6.0 0.00 0.00 0.00 65 1015.1
20260508165033 86 265 2.0 7.0 0.00 0.00 0.00 64 1015.2
20260508164545 85 205 3.0 10.0 0.00 0.00 0.00 65 1015.4
20260508164033 84 246 6.0 10.0 0.00 0.00 0.00 63 1015.5
20260508163537 84 288 2.0 8.0 0.00 0.00 0.00 69 1015.5
20260508163043 84 355 4.0 8.0 0.00 0.00 0.00 68 1015.6
20260508162532 84 304 4.0 9.0 0.00 0.00 0.00 68 1015.6
20260508162034 84 303 3.0 9.0 0.00 0.00 0.00 68 1015.7
20260508161547 84 235 3.0 9.0 0.00 0.00 0.00 71 1015.7
20260508161033 83 11 2.0 10.0 0.00 0.00 0.00 71 1015.9
20260508160533 83 292 5.0 10.0 0.00 0.00 0.00 73 1015.9
20260508160048 83 301 3.0 10.0 0.00 0.00 0.00 71 1015.9
20260508155533 83 120 2.0 9.0 0.00 0.00 0.00 70 1016.0
20260508155033 83 276 4.0 9.0 0.00 0.00 0.00 73 1016.0
20260508154556 83 296 4.0 9.0 0.00 0.00 0.00 72 1016.0
20260508154034 82 315 1.0 9.0 0.00 0.00 0.00 73 1016.0
20260508153533 82 342 4.0 9.0 0.00 0.00 0.00 75 1016.1
20260508153047 81 31 3.0 8.0 0.00 0.00 0.00 75 1016.1
20260508152533 80 334 2.0 8.0 0.00 0.00 0.00 76 1016.2
20260508152032 80 285 6.0 9.0 0.00 0.00 0.00 77 1016.2
20260508151554 80 246 2.0 9.0 0.00 0.00 0.00 76 1016.2
20260508151033 80 302 5.0 9.0 0.00 0.00 0.00 76 1016.2
20260508150537 80 290 2.0 8.0 0.00 0.00 0.00 78 1016.2
20260508150052 79 298 5.0 8.0 0.00 0.00 0.00 79 1016.3
20260508145532 79 292 4.0 10.0 0.00 0.00 0.00 78 1016.3
20260508145033 79 311 3.0 10.0 0.00 0.00 0.00 80 1016.2
20260508144551 79 319 6.0 10.0 0.00 0.00 0.00 79 1016.2
20260508144035 79 321 4.0 10.0 0.00 0.00 0.00 80 1016.2
20260508143533 79 271 4.0 13.0 0.00 0.00 0.00 80 1016.2
20260508143054 78 291 6.0 13.0 0.00 0.00 0.00 81 1016.2
20260508142533 78 286 6.0 13.0 0.00 0.00 0.00 82 1016.2
20260508142033 78 280 5.0 11.0 0.00 0.00 0.00 81 1016.3
20260508141600 78 308 7.0 11.0 0.00 0.00 0.00 82 1016.4
20260508141033 78 288 6.0 10.0 0.00 0.00 0.00 82 1016.2
20260508140532 78 321 6.0 10.0 0.00 0.00 0.00 82 1016.3
20260508140106 78 280 5.0 11.0 0.00 0.00 0.00 82 1016.3
20260508135535 78 296 7.0 11.0 0.00 0.00 0.00 84 1016.3
20260508135034 77 340 6.0 11.0 0.00 0.00 0.00 83 1016.3
20260508134549 77 329 6.0 10.0 0.00 0.00 0.00 83 1016.2
20260508134034 76 355 2.0 10.0 0.00 0.00 0.00 83 1016.1
20260508133534 76 309 5.0 10.0 0.00 0.00 0.00 83 1016.2
20260508133049 75 267 5.0 8.0 0.00 0.00 0.00 83 1016.1
20260508132534 75 325 5.0 8.0 0.00 0.00 0.00 84 1016.1
20260508132035 75 301 3.0 8.0 0.00 0.00 0.00 84 1016.1
20260508131553 74 318 2.0 5.0 0.00 0.00 0.00 85 1016.1
20260508131033 73 285 2.0 4.0 0.00 0.00 0.00 86 1016.2
20260508130532 72 250 1.0 3.0 0.00 0.00 0.00 87 1016.1
20260508130046 72 307 1.0 3.0 0.00 0.00 0.00 88 1016.1
20260508125535 71 215 0.0 3.0 0.00 0.00 0.00 89 1016.1
20260508125035 70 297 1.0 3.0 0.00 0.00 0.00 90 1016.1
20260508124542 69 223 0.0 3.0 0.00 0.00 0.00 91 1016.0
20260508124034 69 222 0.0 3.0 0.00 0.00 0.00 91 1016.0
20260508123538 68 236 0.0 3.0 0.00 0.00 0.00 92 1016.0
20260508123047 67 234 1.0 3.0 0.00 0.00 0.00 92 1016.1
20260508122534 67 232 0.0 3.0 0.00 0.00 0.00 92 1016.0
20260508122037 67 194 0.0 2.0 0.00 0.00 0.00 92 1016.1
20260508121544 66 173 0.0 2.0 0.00 0.00 0.00 92 1016.0
20260508121034 66 0 0.0 1.0 0.00 0.00 0.00 93 1016.0
20260508120535 65 0 0.0 1.0 0.00 0.00 0.00 93 1016.0
20260508120056 64 0 0.0 1.0 0.00 0.00 0.00 92 1016.0
20260508115535 64 0 0.0 0.0 0.00 0.00 0.00 93 1015.9
20260508115034 64 0 0.0 0.0 0.00 0.00 0.00 92 1015.7
20260508114546 64 0 0.0 1.0 0.00 0.00 0.00 92 1015.5
20260508114034 63 0 0.0 1.0 0.00 0.00 0.00 92 1015.5
20260508113535 63 0 0.0 0.0 0.00 0.00 0.00 92 1015.4
20260508113057 62 0 0.0 0.0 0.00 0.00 0.00 93 1015.3
20260508112534 62 0 0.0 0.0 0.00 0.00 0.00 92 1015.3
20260508112034 61 0 0.0 0.0 0.00 0.00 0.00 92 1015.2
20260508111558 61 0 0.0 0.0 0.00 0.00 0.00 92 1015.1
20260508111035 61 0 0.0 0.0 0.00 0.00 0.00 92 1015.0
20260508110536 60 0 0.0 0.0 0.00 0.00 0.00 92 1015.1
20260508110057 60 0 0.0 0.0 0.00 0.00 0.00 92 1015.1
20260508105536 60 0 0.0 0.0 0.00 0.00 0.00 91 1014.9
20260508105034 60 0 0.0 0.0 0.00 0.00 0.00 92 1014.8
20260508104540 60 0 0.0 0.0 0.00 0.00 0.00 91 1014.8
20260508104036 60 0 0.0 0.0 0.00 0.00 0.00 91 1014.7
20260508103532 60 0 0.0 0.0 0.00 0.00 0.00 91 1014.7
20260508103104 60 0 0.0 2.0 0.00 0.00 0.00 91 1014.6
20260508102534 60 0 0.0 2.0 0.00 0.00 0.00 91 1014.5
20260508102035 61 0 0.0 2.0 0.00 0.00 0.00 91 1014.4
20260508101549 60 172 1.0 2.0 0.00 0.00 0.00 91 1014.3
20260508101035 60 172 0.0 0.0 0.00 0.00 0.00 91 1014.3
20260508100534 60 0 0.0 0.0 0.00 0.00 0.00 91 1014.2
20260508100042 60 0 0.0 0.0 0.00 0.00 0.00 91 1014.2
20260508095535 60 0 0.0 0.0 0.00 0.00 0.00 91 1014.0
20260508095035 61 0 0.0 0.0 0.00 0.00 0.00 90 1014.0
20260508094602 61 0 0.0 0.0 0.00 0.00 0.00 90 1014.0
20260508094034 61 0 0.0 0.0 0.00 0.00 0.00 91 1014.0
20260508093532 61 0 0.0 0.0 0.00 0.00 0.00 91 1014.0
20260508093043 61 0 0.0 0.0 0.00 0.00 0.00 91 1013.9
20260508092533 61 0 0.0 0.0 0.00 0.00 0.00 90 1014.0
20260508092036 61 0 0.0 0.0 0.00 0.00 0.00 91 1013.9
20260508091546 61 0 0.0 0.0 0.00 0.00 0.00 91 1013.9
20260508091035 61 0 0.0 0.0 0.00 0.00 0.00 91 1013.9
20260508090536 60 0 0.0 0.0 0.00 0.00 0.00 90 1013.8
20260508090058 60 0 0.0 0.0 0.00 0.00 0.00 90 1013.7
20260508085534 61 0 0.0 0.0 0.00 0.00 0.00 90 1013.8
20260508085034 61 0 0.0 0.0 0.00 0.00 0.00 90 1013.8
20260508084543 61 0 0.0 0.0 0.00 0.00 0.00 90 1013.8
20260508084035 61 0 0.0 0.0 0.00 0.00 0.00 90 1013.8
20260508083533 61 0 0.0 0.0 0.00 0.00 0.00 90 1013.8
20260508083053 61 0 0.0 0.0 0.00 0.00 0.00 90 1013.7
20260508082532 61 0 0.0 2.0 0.00 0.00 0.00 89 1013.7
20260508082035 61 0 0.0 2.0 0.00 0.00 0.00 89 1013.7
20260508081551 61 223 1.0 2.0 0.00 0.00 0.00 89 1013.6
20260508081038 61 173 1.0 2.0 0.00 0.00 0.00 89 1013.7
20260508080538 61 0 0.0 1.0 0.00 0.00 0.00 89 1013.7
20260508080049 61 0 0.0 1.0 0.00 0.00 0.00 89 1013.7
20260508075532 62 0 0.0 1.0 0.00 0.00 0.00 89 1013.8
20260508075034 62 0 0.0 1.0 0.00 0.00 0.00 89 1013.9
20260508074551 62 0 0.0 2.0 0.00 0.00 0.00 88 1014.0
20260508074035 62 0 0.0 2.0 0.00 0.00 0.00 88 1014.0
20260508073535 62 172 0.0 2.0 0.00 0.00 0.00 88 1014.1
20260508073046 62 0 0.0 2.0 0.00 0.00 0.00 89 1014.1
20260508072534 62 0 1.0 2.0 0.00 0.00 0.00 88 1014.1
20260508072034 62 252 0.0 1.0 0.00 0.00 0.00 88 1014.0
20260508071545 62 0 0.0 1.0 0.00 0.00 0.00 88 1014.0
20260508071034 62 0 0.0 2.0 0.00 0.00 0.00 88 1014.1
20260508070535 62 0 0.0 2.0 0.00 0.00 0.00 88 1014.1
20260508070047 62 221 1.0 2.0 0.00 0.00 0.00 89 1014.2
20260508065535 62 274 0.0 1.0 0.00 0.00 0.00 89 1014.3
20260508065032 62 0 0.0 2.0 0.00 0.00 0.00 89 1014.2
20260508064554 62 0 0.0 2.0 0.00 0.00 0.00 89 1014.2
20260508064032 62 274 1.0 3.0 0.00 0.00 0.00 89 1014.3
20260508063535 62 274 1.0 3.0 0.00 0.00 0.00 89 1014.3
20260508063041 62 274 2.0 3.0 0.00 0.00 0.00 88 1014.3
20260508062534 63 274 2.0 3.0 0.00 0.00 0.00 88 1014.2
20260508062035 63 274 2.0 3.0 0.00 0.00 0.00 88 1014.3
20260508061549 63 233 0.0 2.0 0.00 0.00 0.00 87 1014.3
20260508061035 64 0 0.0 0.0 0.00 0.00 0.00 86 1014.4
20260508060534 64 0 0.0 0.0 0.00 0.00 0.00 86 1014.4
20260508060045 64 0 0.0 0.0 0.00 0.00 0.00 86 1014.4
20260508055534 64 0 0.0 0.0 0.00 0.00 0.00 85 1014.5
20260508055034 64 0 0.0 0.0 0.00 0.00 0.00 85 1014.5
20260508054545 64 0 0.0 0.0 0.00 0.00 0.00 85 1014.5
20260508054034 64 0 0.0 0.0 0.00 0.00 0.00 85 1014.5
20260508053535 64 0 0.0 0.0 0.00 0.00 0.00 85 1014.5
20260508053042 65 0 0.0 0.0 0.00 0.00 0.00 85 1014.5
20260508052534 65 0 0.0 0.0 0.00 0.00 0.00 85 1014.6
20260508052039 65 0 0.0 0.0 0.00 0.00 0.00 85 1014.6
20260508051552 65 0 0.0 0.0 0.00 0.00 0.00 85 1014.7
20260508051035 65 0 0.0 0.0 0.00 0.00 0.00 85 1014.7
20260508050535 65 0 0.0 0.0 0.00 0.00 0.00 85 1014.7
20260508050045 65 0 0.0 0.0 0.00 0.00 0.00 85 1014.7
20260508045533 65 0 0.0 1.0 0.00 0.00 0.00 85 1014.6
20260508045034 66 0 0.0 2.0 0.00 0.00 0.00 85 1014.6
20260508044543 66 0 0.0 2.0 0.00 0.00 0.00 85 1014.6
20260508044042 66 0 0.0 2.0 0.00 0.00 0.00 85 1014.5
20260508043533 66 0 0.0 0.0 0.00 0.00 0.00 85 1014.7
20260508043049 66 0 0.0 3.0 0.00 0.00 0.00 86 1014.5
20260508042534 66 0 0.0 3.0 0.00 0.00 0.00 87 1014.5
20260508042035 66 152 1.0 3.0 0.00 0.00 0.00 87 1014.4
20260508041546 67 0 0.0 2.0 0.00 0.00 0.00 87 1014.5
20260508041034 67 0 0.0 2.0 0.00 0.00 0.00 87 1014.5
20260508040535 67 0 1.0 3.0 0.00 0.00 0.00 88 1014.4
20260508040049 67 224 1.0 3.0 0.00 0.00 0.00 88 1014.5
20260508035535 67 0 0.0 1.0 0.00 0.00 0.00 87 1014.5
20260508035035 68 0 0.0 2.0 0.00 0.00 0.00 87 1014.5
20260508034549 68 224 0.0 2.0 0.00 0.00 0.00 87 1014.6
20260508034033 68 224 1.0 2.0 0.00 0.00 0.00 87 1014.6
20260508033534 68 0 0.0 0.0 0.00 0.00 0.00 86 1014.7
20260508033049 68 0 0.0 0.0 0.00 0.00 0.00 86 1014.6
20260508032535 68 0 0.0 0.0 0.00 0.00 0.00 85 1014.7
20260508032037 69 0 0.0 0.0 0.00 0.00 0.00 85 1014.5
20260508031543 69 0 0.0 0.0 0.00 0.00 0.00 85 1014.5
20260508031034 70 0 0.0 0.0 0.00 0.00 0.00 84 1014.4
20260508030534 70 0 0.0 0.0 0.00 0.00 0.00 84 1014.4
20260508030048 71 0 0.0 2.0 0.00 0.00 0.00 84 1014.3
20260508025532 71 0 0.0 2.0 0.00 0.00 0.00 83 1014.3
20260508025034 72 0 0.0 2.0 0.00 0.00 0.00 83 1014.4
20260508024550 72 0 0.0 1.0 0.00 0.00 0.00 83 1014.4
20260508024034 73 0 0.0 3.0 0.00 0.00 0.00 82 1014.4
20260508023533 73 0 0.0 3.0 0.00 0.00 0.00 82 1014.4
20260508023049 74 280 1.0 3.0 0.00 0.00 0.00 81 1014.3
20260508022534 74 0 0.0 2.0 0.00 0.00 0.00 81 1014.3
20260508022035 75 111 0.0 2.0 0.00 0.00 0.00 81 1014.2
20260508021546 75 0 0.0 2.0 0.00 0.00 0.00 80 1014.2
20260508021034 76 0 0.0 2.0 0.00 0.00 0.00 78 1014.1
20260508020536 76 105 0.0 2.0 0.00 0.00 0.00 77 1014.1
20260508020044 76 105 1.0 2.0 0.00 0.00 0.00 77 1014.1
20260508015534 76 134 1.0 3.0 0.00 0.00 0.00 77 1014.1
20260508015032 76 0 0.0 3.0 0.00 0.00 0.00 77 1014.2
20260508014554 76 138 0.0 4.0 0.00 0.00 0.00 77 1014.1
20260508014038 76 128 1.0 4.0 0.00 0.00 0.00 78 1014.2
20260508013533 75 119 2.0 8.0 0.00 0.00 0.00 79 1014.1
20260508013047 74 114 1.0 8.0 0.00 0.00 0.00 79 1014.0
20260508012536 76 284 6.0 8.0 0.00 0.00 0.00 77 1014.1
20260508012034 77 0 0.0 3.0 0.00 0.00 0.00 75 1013.8
20260508011547 77 0 0.0 4.0 0.00 0.00 0.00 75 1013.6
20260508011033 77 172 0.0 4.0 0.00 0.00 0.00 76 1013.6
20260508010537 77 77 1.0 4.0 0.00 0.00 0.00 76 1013.6
20260508010045 77 0 1.0 3.0 0.00 0.00 0.00 76 1013.6
20260508005535 77 29 1.0 4.0 0.00 0.00 0.00 76 1013.4
20260508005036 77 29 2.0 4.0 0.00 0.00 0.00 74 1013.4
20260508004549 78 29 3.0 4.0 0.00 0.00 0.00 73 1013.4
20260508004035 79 65 0.0 3.0 0.00 0.00 0.00 71 1013.3
20260508003535 80 0 0.0 3.0 0.00 0.00 0.00 71 1013.3
20260508003058 80 168 1.0 3.0 0.00 0.00 0.00 70 1013.2
20260508002534 81 168 1.0 3.0 0.00 0.00 0.00 69 1013.2
20260508002035 81 156 0.0 3.0 0.00 0.00 0.00 68 1013.0
20260508001547 82 155 1.0 4.0 0.00 0.00 0.00 67 1013.1
20260508001034 82 163 1.0 4.0 0.00 0.00 0.00 65 1013.1
20260508000536 83 176 1.0 3.0 0.00 0.00 0.00 64 1013.1
20260508000046 84 0 0.0 4.0 0.00 0.00 0.00 62 1013.1
20260507235537 84 176 1.0 4.0 0.00 0.00 0.00 61 1013.0
20260507235034 85 174 1.0 4.0 0.00 0.00 0.00 59 1012.9
20260507234548 86 173 1.0 4.0 0.00 0.00 0.00 58 1012.9
20260507234034 87 170 2.0 4.0 0.00 0.00 0.00 55 1012.9
20260507233536 89 181 0.0 3.0 0.00 0.00 0.00 53 1012.9